User: anonymous   Login
Location: Caltech
(34.1382°N, 118.1253°W)
Time: 02:27:47
(UTC-07:00)
Language:

CZ-2C R/B - Orbit

View from above orbital plane
View from above orbital plane
View from above satellite
View from above satellite

Ground track
Ground track

The orbit data is extracted from the following two-line orbital elements,

1 36089U 09061B   15184.81947633  .00000100  00000-0  36115-4 0  9993
2 36089 098.0702 207.1835 0083667 085.5204 024.4155 14.49461526298219
Epoch (UTC): 03 July 2015 19:40:02
Eccentricity: 0.0083667
inclination: 98.0702°
perigee height: 668 km
apogee height: 787 km
right ascension of ascending node: 207.1835°
argument of perigee: 85.5204°
revolutions per day: 14.49461526
mean anomaly at epoch: 24.4155°
orbit number at epoch: 29821

The dashed part of the orbit path shows where the satellite is in the earth's shadow,  

DLR